TimePST,TemperatureF,Dew PointF,Humidity,Sea Level PressureIn,VisibilityMPH,Wind Direction,Wind SpeedMPH,Gust SpeedMPH,PrecipitationIn,Events,Conditions,WindDirDegrees,DateUTC
12:52 AM,41.0,8.1,26,30.28,10.0,NNE,16.1,-,N/A,,Clear,30,2013-01-18 08:52:00
1:52 AM,41.0,8.1,26,30.27,10.0,NNE,12.7,-,N/A,,Clear,30,2013-01-18 09:52:00
2:52 AM,42.1,8.1,25,30.27,10.0,NNE,15.0,20.7,N/A,,Clear,30,2013-01-18 10:52:00
3:52 AM,37.9,9.0,30,30.27,10.0,NE,13.8,-,N/A,,Clear,40,2013-01-18 11:52:00
4:52 AM,36.0,9.0,33,30.27,10.0,East,8.1,-,N/A,,Clear,90,2013-01-18 12:52:00
6:52 AM,37.9,8.1,29,30.30,10.0,NE,12.7,-,N/A,,Clear,40,2013-01-18 14:52:00
7:52 AM,41.0,9.0,27,30.31,10.0,East,4.6,-,N/A,,Clear,80,2013-01-18 15:52:00
8:52 AM,44.1,9.0,24,30.32,10.0,Calm,Calm,-,N/A,,Clear,0,2013-01-18 16:52:00
9:18 AM,46.4,8.6,22,30.34,10.0,NNE,15.0,-,N/A,,Clear,30,2013-01-18 17:18:00
9:52 AM,48.9,9.0,20,30.32,10.0,NNE,13.8,20.7,N/A,,Clear,30,2013-01-18 17:52:00
10:52 AM,53.1,9.0,17,30.30,10.0,NNE,9.2,-,N/A,,Clear,20,2013-01-18 18:52:00
11:52 AM,55.0,8.1,15,30.25,10.0,Variable,5.8,-,N/A,,Clear,0,2013-01-18 19:52:00
12:52 PM,55.9,7.0,14,30.22,10.0,ESE,9.2,-,N/A,,Clear,120,2013-01-18 20:52:00
1:52 PM,57.0,7.0,14,30.20,10.0,ESE,12.7,-,N/A,,Clear,120,2013-01-18 21:52:00
2:52 PM,57.9,7.0,13,30.19,10.0,ESE,11.5,-,N/A,,Clear,110,2013-01-18 22:52:00
3:52 PM,57.0,6.1,13,30.20,10.0,ESE,13.8,-,N/A,,Clear,120,2013-01-18 23:52:00
4:52 PM,53.1,7.0,16,30.21,10.0,East,12.7,-,N/A,,Clear,100,2013-01-19 00:52:00
5:52 PM,48.0,7.0,19,30.23,10.0,East,10.4,-,N/A,,Clear,100,2013-01-19 01:52:00
6:52 PM,46.0,6.1,20,30.24,10.0,NE,11.5,-,N/A,,Clear,40,2013-01-19 02:52:00
7:52 PM,46.0,8.1,21,30.25,10.0,NE,15.0,-,N/A,,Clear,40,2013-01-19 03:52:00
8:52 PM,44.1,8.1,23,30.25,10.0,NNE,16.1,-,N/A,,Clear,30,2013-01-19 04:52:00
9:52 PM,43.0,8.1,24,30.26,10.0,NE,8.1,-,N/A,,Clear,50,2013-01-19 05:52:00
10:52 PM,42.1,8.1,25,30.26,10.0,NE,13.8,-,N/A,,Clear,40,2013-01-19 06:52:00
11:52 PM,41.0,8.1,26,30.26,10.0,East,8.1,-,N/A,,Clear,80,2013-01-19 07:52:00